Stations météo

Publicité
Le Luc, France (7675): Température de l'air & dewpoint: 08.11.2018 09:00:00 - 14.11.2018 09:00:00 (CET)Le Luc, France (7675): Température de l'air 5cm: 08.11.2018 09:00:00 - 14.11.2018 09:00:00 (CET)Le Luc, France (7675): Vitesse du vent & gusts: 08.11.2018 09:00:00 - 14.11.2018 09:00:00 (CET)Le Luc, France (7675): Direction du vent: 08.11.2018 09:00:00 - 14.11.2018 09:00:00 (CET)Le Luc, France (7675): reduced air pressure: 08.11.2018 09:00:00 - 14.11.2018 09:00:00 (CET)Le Luc, France (7675): visibility: 08.11.2018 09:00:00 - 14.11.2018 09:00:00 (CET)Le Luc, France (7675): Ensoleillement: 08.11.2018 09:00:00 - 14.11.2018 09:00:00 (CET)Le Luc, France (7675): Quantités de précipitations: 08.11.2018 09:00:00 - 14.11.2018 09:00:00 (CET)
Date & Time tt [°C] td [°C] tt 5cm [°C] ff [km/h] ff [knt] fx [km/h] fx [knt] dd ppp [hPa] vv [km] sd [min] rr [mm]
14.11.2018 09:00:00 12,1 12,1 11,5 0 0 8 4 N 1028,2 1,5 0 0,0
14.11.2018 08:00:00 11,5 11,5 11,0 0 0 3 2 N 1027,9 0,6 0 0,0
14.11.2018 07:00:00 11,4 11,4 11,1 0 0 5 3 N 1027,4 4,0 0 0,0
14.11.2018 06:00:00 11,4 11,4 11,1 0 0 6 3 N 1027,5 2,4 0 0,0
14.11.2018 05:00:00 11,3 11,3 11,0 4 2 8 4 N 1027,4 0,2 0 0,0
14.11.2018 04:00:00 11,0 11,0 10,6 0 0 3 2 N 1027,6 0,1 0 0,2
14.11.2018 03:00:00 10,9 10,9 9,7 2 1 4 2 SSE 1027,8 0,1 0 0,0
14.11.2018 02:00:00 10,7 10,5 9,6 0 0 3 1 N 1027,7 0,3 0 0,0
14.11.2018 01:00:00 11,1 10,9 10,0 0 0 3 2 N 1027,9 0,2 0 0,0
14.11.2018 00:00:00 11,6 11,4 10,2 0 0 3 2 N 1028,1 0,2 0 0,0
13.11.2018 23:00:00 12,2 12,0 10,7 0 0 5 3 N 1028,1 0,3 0 0,0
13.11.2018 22:00:00 12,7 12,4 10,4 0 0 4 2 N 1028,1 7 0 0,2
13.11.2018 21:00:00 13,7 13,2 10,6 2 1 4 2 SSE 1027,8 6 0 0,0
13.11.2018 20:00:00 14,1 13,5 11,5 0 0 6 4 N 1027,6 8 0 0,0
13.11.2018 19:00:00 15,3 13,8 13,7 4 2 8 4 SSE 1027,3 20 0 0,0
13.11.2018 18:00:00 17,1 14,9 14,4 4 2 7 4 SW 1026,9 30 0 0,0
13.11.2018 17:00:00 18,7 15,4 17,4 5 3 10 5 SSW 1026,6 50 48 0,0
13.11.2018 16:00:00 21,1 15,4 24,0 4 2 8 5 S 1026,3 50 60 0,0
13.11.2018 15:00:00 21,5 15,1 25,3 3 2 7 4 S 1026,3 50 60 0,0
13.11.2018 14:00:00 20,7 14,8 24,4 0 0 6 3 N 1026,9 37 55 0,0
13.11.2018 13:00:00 20,1 14,9 23,1 0 0 17 9 N 1027,2 34 51 0,0
13.11.2018 12:00:00 18,7 14,6 20,6 0 0 7 4 N 1027,6 50 0 0,0
13.11.2018 11:00:00 18,0 14,3 18,6 3 2 9 5 NE 1028,0 36 8 0,0
13.11.2018 10:00:00 16,3 14,0 16,2 0 0 7 4 N 1028,1 39 0 0,0
13.11.2018 09:00:00 15,4 13,9 14,6 3 2 9 5 SSW 1027,9 20 0 0,0
13.11.2018 08:00:00 15,1 13,6 12,8 6 3 13 7 NNE 1027,4 20 0 0,0
13.11.2018 07:00:00 15,1 13,1 13,6 6 3 14 7 NE 1026,7 42 0 0,0
13.11.2018 06:00:00 15,4 13,2 14,3 8 5 13 7 NE 1026,2 44 0 0,0
13.11.2018 05:00:00 15,3 13,7 13,4 5 3 9 5 NNE 1026,1 39 0 0,0
13.11.2018 04:00:00 15,5 13,5 14,0 5 3 14 8 NNE 1026,0 38 0 0,0
13.11.2018 03:00:00 15,6 14,1 13,3 6 3 10 5 E 1026,0 41 0 0,0
13.11.2018 02:00:00 14,6 13,8 13,3 0 0 7 4 N 1026,1 13 0 0,0
13.11.2018 01:00:00 15,1 14,1 13,9 0 0 3 2 N 1025,6 16 0 0,0
13.11.2018 00:00:00 15,5 14,5 14,3 0 0 7 4 N 1025,5 20 0 0,0
12.11.2018 23:00:00 15,8 14,5 14,7 5 3 13 7 NE 1025,5 20 0 0,0
12.11.2018 22:00:00 16,2 14,9 15,4 5 3 15 8 WNW 1025,9 20 0 0,0
12.11.2018 21:00:00 16,3 14,8 15,2 4 2 11 6 NNE 1025,5 27 0 0,0
12.11.2018 20:00:00 16,4 14,8 15,4 6 4 14 8 ENE 1025,2 30 0 0,0
12.11.2018 19:00:00 16,4 14,4 14,8 6 3 16 8 ENE 1025,1 37 0 0,0
12.11.2018 18:00:00 16,7 14,5 15,7 8 4 13 7 E 1024,6 20 0 0,0
12.11.2018 17:00:00 17,2 14,7 16,4 8 5 25 14 E 1024,2 20 29 0,0
12.11.2018 16:00:00 18,4 14,5 18,4 17 9 31 17 ESE 1023,9 20 48 0,0
12.11.2018 15:00:00 18,5 15,0 18,1 16 9 29 15 ESE 1023,7 20 - -
12.11.2018 14:00:00 18,4 15,3 18,3 19 10 30 16 E 1023,7 41 12 0,0
12.11.2018 13:00:00 17,8 16,0 16,0 14 8 22 12 E 1024,0 30 3 0,0
12.11.2018 12:00:00 16,1 15,5 15,5 10 5 18 10 NE 1024,6 10 0 0,0
12.11.2018 11:00:00 15,7 15,1 14,9 13 7 18 10 NNE 1024,8 10 0 0,2
12.11.2018 10:00:00 15,4 14,9 14,8 12 6 19 10 NE 1024,5 8 0 0,4
12.11.2018 09:00:00 15,3 14,8 14,6 14 8 20 11 NE 1024,0 12 0 1,2
12.11.2018 08:00:00 15,1 14,6 14,6 10 6 17 9 NNE 1023,4 6 0 0,6
12.11.2018 07:00:00 15,1 14,6 14,5 10 5 22 12 NE 1022,7 4,0 0 2,0
12.11.2018 06:00:00 15,1 14,6 14,6 14 7 21 12 NE 1022,5 9 0 0,6
12.11.2018 05:00:00 15,1 14,6 14,6 10 6 18 10 NE 1022,2 10 0 0,2
12.11.2018 04:00:00 15,4 14,9 14,4 10 5 18 10 E 1022,3 19 0 0,2
12.11.2018 03:00:00 15,0 14,5 14,5 9 5 15 8 NE 1022,3 11 0 0,8
12.11.2018 02:00:00 15,3 14,3 14,5 10 5 21 11 E 1022,3 16 0 0,0
12.11.2018 01:00:00 15,4 14,6 14,4 5 3 15 8 ENE 1022,2 20 0 0,2
12.11.2018 00:00:00 15,7 14,4 14,7 15 8 26 14 ESE 1022,1 14 0 0,0
11.11.2018 23:00:00 15,3 14,7 14,4 8 5 16 9 ENE 1021,8 3,9 0 2,0
11.11.2018 22:00:00 15,4 14,1 14,4 11 6 27 15 E 1021,7 12 0 0,0
11.11.2018 21:00:00 15,4 14,9 14,8 11 6 21 12 NE 1021,2 29 0 0,0
11.11.2018 20:00:00 15,4 14,9 14,5 11 6 19 11 NE 1020,5 20 0 0,0
11.11.2018 19:00:00 15,1 14,6 14,1 14 7 20 11 NE 1020,3 19 0 0,0
11.11.2018 18:00:00 14,9 14,3 14,1 10 6 20 11 NE 1019,9 31 0 0,0
11.11.2018 17:00:00 15,2 14,6 14,6 13 7 18 10 NE 1019,6 19 0 0,2
11.11.2018 16:00:00 15,5 14,7 15,1 12 6 17 9 NE 1019,6 36 0 0,0
11.11.2018 15:00:00 15,4 14,6 15,1 11 6 19 10 ENE 1019,4 27 0 0,8
11.11.2018 14:00:00 15,6 14,6 15,1 12 7 21 11 NE 1019,4 29 0 0,2
11.11.2018 13:00:00 15,2 14,4 14,5 12 6 22 12 NE 1019,3 24 0 0,0
11.11.2018 12:00:00 14,6 14,0 13,9 13 7 21 11 NE 1019,4 29 0 1,0
11.11.2018 11:00:00 14,4 13,6 14,0 14 8 23 12 ENE 1019,0 18 0 0,0
11.11.2018 10:00:00 13,9 13,4 12,9 13 7 19 11 NE 1018,4 15 0 0,2
11.11.2018 09:00:00 13,2 12,6 12,6 6 4 20 11 ENE 1018,0 9 0 0,6
11.11.2018 08:00:00 13,1 12,5 12,5 11 6 20 11 ENE 1017,0 15 0 0,4
11.11.2018 07:00:00 13,0 12,4 12,5 8 4 18 10 NE 1016,7 19 0 0,0
11.11.2018 06:00:00 13,1 12,5 12,5 11 6 17 9 ENE 1016,1 49 0 0,0
11.11.2018 05:00:00 13,3 12,7 12,5 5 3 15 8 ENE 1016,3 48 0 0,0
11.11.2018 04:00:00 13,0 12,4 12,4 10 5 14 8 NE 1016,0 46 0 0,0
11.11.2018 03:00:00 12,9 12,3 12,4 3 2 16 9 NE 1016,2 17 0 0,2
11.11.2018 02:00:00 13,1 12,3 12,5 10 5 15 8 NE 1016,2 15 0 0,4
11.11.2018 01:00:00 13,5 12,1 12,6 11 6 18 10 ENE 1016,0 9 0 0,0
11.11.2018 00:00:00 14,3 13,0 13,6 8 4 13 7 E 1016,1 20 0 0,0
10.11.2018 23:00:00 14,5 13,0 13,8 6 4 10 6 ENE 1016,1 42 0 0,0
10.11.2018 22:00:00 14,4 12,9 13,5 6 3 10 5 ENE 1015,8 36 0 0,0
10.11.2018 21:00:00 14,2 13,2 13,4 6 4 10 5 ENE 1015,4 24 0 0,0
10.11.2018 20:00:00 14,3 13,2 13,4 2 1 5 3 ENE 1015,3 35 0 0,0
10.11.2018 19:00:00 14,6 13,3 13,6 4 2 4 2 NW 1015,3 39 0 0,0
10.11.2018 18:00:00 14,8 13,2 14,1 3 2 8 4 E 1014,8 47 0 0,0
10.11.2018 17:00:00 16,3 13,4 15,7 4 2 9 5 E 1014,2 47 10 0,0
10.11.2018 16:00:00 17,1 13,0 17,3 5 3 14 8 S 1014,0 46 0 0,0
10.11.2018 15:00:00 17,8 13,3 17,7 11 6 16 9 ESE 1013,3 49 15 0,0
10.11.2018 14:00:00 18,1 13,4 18,5 6 3 17 9 S 1013,7 45 40 0,0
10.11.2018 13:00:00 18,5 15,0 15,8 6 3 15 8 S 1013,8 42 18 0,2
10.11.2018 12:00:00 16,8 15,8 16,2 5 3 9 5 WSW 1014,7 20 0 0,6
10.11.2018 11:00:00 16,5 15,5 15,9 5 3 17 9 NE 1014,9 12 4 0,4
10.11.2018 10:00:00 15,8 14,8 14,7 13 7 16 9 ENE 1014,7 20 10 0,0
10.11.2018 09:00:00 15,0 14,4 14,2 10 6 15 8 NE 1014,7 24 4 0,0
10.11.2018 08:00:00 14,5 14,0 13,4 6 4 14 7 NE 1014,7 20 0 0,0
10.11.2018 07:00:00 14,6 14,1 13,6 10 5 16 8 NE 1014,4 20 0 0,4
10.11.2018 06:00:00 14,6 14,1 13,6 9 5 14 8 E 1014,4 2,8 0 1,6
10.11.2018 05:00:00 14,6 14,3 13,7 7 4 14 8 N 1014,6 14 0 6,0
10.11.2018 04:00:00 14,8 14,5 14,1 5 3 10 5 NNE 1014,6 1,4 0 7,9
10.11.2018 03:00:00 15,0 14,4 14,3 4 2 14 8 S 1014,7 15 0 2,8
10.11.2018 02:00:00 15,1 14,3 14,3 6 4 14 7 ENE 1014,9 5 0 2,7
10.11.2018 01:00:00 15,3 14,3 14,3 11 6 23 12 NE 1014,9 11 0 0,8
10.11.2018 00:00:00 15,3 14,3 14,1 6 3 13 7 ENE 1015,2 20 0 0,8
09.11.2018 23:00:00 15,3 13,8 14,2 9 5 15 8 ENE 1015,1 28 0 0,0
09.11.2018 22:00:00 15,5 13,9 14,3 10 6 19 10 NE 1015,4 8 0 0,8
09.11.2018 21:00:00 16,3 14,1 14,7 9 5 23 12 E 1015,3 31 0 0,0
09.11.2018 20:00:00 16,1 14,1 14,4 10 6 22 12 E 1014,7 31 0 0,0
09.11.2018 19:00:00 15,9 14,1 13,9 9 5 35 19 E 1014,1 19 0 0,2
09.11.2018 18:00:00 15,6 13,8 14,1 7 4 19 10 ESE 1014,5 8 0 0,8
09.11.2018 17:00:00 16,3 13,4 15,5 16 8 35 19 ENE 1014,6 43 0 0,0
09.11.2018 16:00:00 16,6 13,7 16,4 18 10 33 18 ENE 1014,7 35 0 0,0
09.11.2018 15:00:00 17,0 13,7 16,4 22 12 39 21 ENE 1014,6 38 0 0,0
09.11.2018 14:00:00 16,4 14,4 14,7 18 10 29 16 ENE 1014,5 42 0 0,2
09.11.2018 13:00:00 16,3 14,0 15,9 16 8 29 16 ENE 1015,2 30 0 0,0
09.11.2018 12:00:00 16,0 14,4 15,0 17 9 26 14 ENE 1015,7 49 9 0,0
09.11.2018 11:00:00 14,9 14,3 13,8 16 8 24 13 NE 1016,3 20 0 0,9
09.11.2018 10:00:00 13,9 13,4 13,3 14 8 24 13 NE 1016,2 12 0 2,0
09.11.2018 09:00:00 13,8 13,0 13,2 9 5 19 10 ENE 1016,5 1,5 0 2,8
09.11.2018 08:00:00 13,9 13,1 12,9 11 6 16 9 NE 1016,3 8 0 0,0
09.11.2018 07:00:00 13,9 13,3 13,1 11 6 16 9 NE 1016,5 6 0 0,2
09.11.2018 06:00:00 13,9 13,3 13,2 6 3 16 9 NE 1016,6 14 0 0,4
09.11.2018 05:00:00 14,2 13,4 13,4 10 6 19 11 NE 1016,5 18 0 0,8
09.11.2018 04:00:00 14,2 13,4 13,5 3 2 25 13 N 1016,9 31 0 5,3
09.11.2018 03:00:00 14,3 13,3 13,3 8 5 15 8 ENE 1017,4 4,5 0 1,0
09.11.2018 02:00:00 14,3 13,2 13,0 5 3 8 4 NE 1017,8 31 0 0,0
09.11.2018 01:00:00 14,4 13,3 13,6 7 4 19 11 NE 1018,4 27 0 0,0
09.11.2018 00:00:00 14,5 13,4 13,5 2 1 14 7 E 1018,9 33 0 0,0
08.11.2018 23:00:00 14,6 13,5 13,5 9 5 16 9 NE 1018,6 33 0 0,0
08.11.2018 22:00:00 14,2 13,4 13,2 12 6 18 10 NE 1018,7 23 0 0,0
08.11.2018 21:00:00 14,1 13,3 13,2 6 3 13 7 E 1019,0 18 0 0,0
08.11.2018 20:00:00 14,2 13,2 13,1 7 4 14 7 NE 1019,2 24 0 0,0
08.11.2018 19:00:00 14,6 13,6 12,7 6 4 12 7 ENE 1019,5 10 0 0,0
08.11.2018 18:00:00 14,7 13,2 12,4 6 3 10 6 ENE 1019,2 10 0 0,0
08.11.2018 17:00:00 16,0 13,3 15,1 8 5 18 10 E 1018,9 30 3 0,0
08.11.2018 16:00:00 16,8 14,1 17,2 8 4 21 11 ENE 1018,9 30 5 0,0
08.11.2018 15:00:00 17,2 14,1 18,2 12 6 23 12 ENE 1019,1 38 38 0,0
08.11.2018 14:00:00 17,5 14,4 20,1 10 6 18 10 ENE 1019,5 20 49 0,0
08.11.2018 13:00:00 16,6 15,0 16,7 6 4 11 6 NE 1019,9 20 41 0,0
08.11.2018 12:00:00 14,8 14,3 14,7 6 4 9 5 NNE 1020,4 7 0 0,2
08.11.2018 11:00:00 14,1 13,6 14,8 0 0 9 5 N 1020,7 43 4 0,0
08.11.2018 10:00:00 13,0 13,0 12,5 3 1 7 4 WNW 1020,8 0,2 4 0,0
08.11.2018 09:00:00 12,5 12,3 12,4 5 3 8 5 E 1020,6 0,2 4 0,0

tt = Température de l'air
td = dewpoint
tt 5cm = Température de l'air 5cm
ff = Vitesse du vent
fx = gusts
dd = Direction du vent
ppp = reduced air pressure
vv = visibility
sd = Ensoleillement
rr = Quantités de précipitations

stations d'obs. à proximité